Current weather by "City, St" or "zip code"  
 
Advertise Here

Current Conditions: Putnam County Regional Airport, IN

Fair


70.0 F

Last Updated on Jul 26 2021, 11:55 pm EDT
Humidity: 89%
Wind Speed: N 4.6 mph
Barometer 30.06 in
Dewpoint: 66.2 F
Visibility: 10.00 mi
Precip: --
Heat Index: NA
Wind Chill: NA
Current conditions at:

Putnam County Regional Airport, IN (KGPC)

Lat: 39.6354 Lon: 86.8155

Local Radar Image active severe weather and emergency alerts image image weather storm and storm spotter reports image weather observation monitoring service image
Local
Radar
Active
Alerts
Storm Reports Obs
Monitoring

Sign-up For Email & Text Message Weather Alert Notification Services


Advertise Here

Observation History for Putnam County Regional Airport, IN


Time Wind
(mph)
Vis
(mi)
Weather Precip (in) Temperature (F) Relative
Humidity
Wind
Chill
(F)
Heat
Index
(F)
Pressure
Air Dwpt altimeter
(in)
sea level
(mb)
Rmks
11:55 pm EDT N 4.6 10.00 Fair -- 70.0 66.2 89% NA NA 30.06 M
10:55 pm EDT NE 4.6 10.00 Fair -- 71.0 67.1 88% NA NA 30.06 M
9:55 pm EDT NE 3.5 10.00 Fair -- 71.0 68.7 91% NA NA 30.04 M
8:55 pm EDT NE 4.6 10.00 Fair -- 75.0 69.6 83% NA NA 30.02 M
7:55 pm EDT N 5.8 10.00 Fair -- 81.0 67.3 62% NA 83 30.01 M
6:55 pm EDT N 5.8 10.00 Fair -- 84.0 68.7 60% NA 88 30.02 M
5:55 pm EDT N 4.6 10.00 Fair -- 85.0 66.9 54% NA 88 30.02 M
4:55 pm EDT NE 4.6 10.00 Fair -- 86.0 66.9 53% NA 89 30.02 M
3:55 pm EDT N 6.9 10.00 Fair -- 86.0 67.1 54% NA 89 30.04 M
2:55 pm EDT N 0.0 10.00 Fair -- 86.0 67.1 54% NA 89 30.05 M
1:55 pm EDT NE 5.8 10.00 Fair -- 85.0 68.4 58% NA 89 30.05 M
12:55 pm EDT N 4.6 10.00 Fair -- 84.0 63.5 50% NA 85 30.05 M
11:55 am EDT N 3.5 10.00 Fair -- 83.0 65.3 55% NA 85 30.05 M
8:55 am EDT N 0.0 10.00 Fair -- 74.0 68.9 84% NA NA 30.04 M
8:35 am EDT N 3.5 10.00 Fair -- 73.0 68.9 88% NA NA 30.04 M
7:55 am EDT NW 3.5 10.00 Fair -- 70.0 67.6 93% NA NA 30.03 M
6:55 am EDT 4.00 Fog/Mist -- 68.0 67.3 98% NA NA 30.02 M
5:55 am EDT N 0.0 7.00 Fair 00.02 69.0 67.6 96% NA NA 30.00 M
4:55 am EDT N 0.0 7.00 Fair -- 70.0 68.9 96% NA NA 29.98 M
3:55 am EDT N 3.5 10.00 Fair -- 71.0 69.1 95% NA NA 29.98 M
2:55 am EDT N 0.0 10.00 Mostly Cloudy -- 71.0 69.4 95% NA NA 29.99 M
1:55 am EDT N 0.0 10.00 Partly Cloudy -- 71.0 69.8 95% NA NA 29.99 M
12:55 am EDT N 0.0 10.00 Partly Cloudy -- 72.0 69.8 94% NA NA 29.99 M

Regional Weather Observation


Putnam County Regional Airport, IN (KGPC)

Fair
70.0 F

Terre Haute Regional Airport, IN (KHUF)

Fair
72.0 F

Edgar County Airport, IL (KPRG)

Fair
68.0 F

Indianapolis, Eagle Creek Airpark, IN (KEYE)

Fair
75.0 F

Indianapolis International Airport, IN (KIND)

Fair
76.0 F

Frankfort Municipal Airport, IN (KFKR)

Overcast
66.0 F
Advertise Here

Advertise Here